KAZSAT-3

Last updated on Nov. 18, 2019, 4:21 a.m. UTC

1 39728U 14023B   19320.91989477  .00000069  00000-0  00000-0 0  9993
2 39728   0.0412 104.1215 0001121 195.1128 146.1527  1.00270882 18333
UTC
Height (km)
Latitude
Longitude
Inclination
Orbital Period
UTC large
Height (km)
Speed (km/s)
/
Latitude / Longitude
Inclination (degrees)
Orbital Period (minutes)
Azimuth
Elevation
Range (km)
Doppler Factor
iOS Compass Heading
iOS Angle

Next 30 passes for location: Hong Kong

Rise time Rise Azimuth (degrees) Set time Set Azimuth (degrees) Duration Max altitude (degrees)

No matching passes for this satellites